[[{"header":{"parameterUnit":"m.s-1","parameterCategory":1,"la1":30.2991,"la2":30.254,"lo1":-89.0895,"lo2":-89.0444,"dy":0.0017,"dx":0.0017,"nx":28,"ny":28,"refTime":"2023-08-16T21:00:00:Z","depth":0,"parameterNumber":2,"parameterNumberName":"U-component_of_WINDS"},"data":[0,0,0,0,0,0,0,0,0,0,0,0,0,0,0,0,0,0,0,0,0,0,0,0,0,0,0,0,0,0,0,0,0,0,0,0,0,0,0,0,0,0,0,0,0,0,0,0,0,0,0,0,0,0,0,0,0,0,1.0008,1.0009,0,1.0105,1.0106,1.0107,1.015,1.015,1.015,1.015,1.0252,1.0255,1.0258,0,0,0,0,0,0,0,0,0,0,0,0,0,0.9862,0.9865,1.0008,1.0009,1.001,1.0105,1.0106,1.0107,1.015,1.015,1.015,1.0149,1.0251,1.0254,1.0258,0,0,0,0,0,0,0,0,0,0,0,0,0,0.9939,0.9865,1.0008,1.0043,1.0047,1.0104,1.0106,1.0108,1.015,1.015,1.015,1.0149,1.025,1.0254,1.0258,1.0289,0,0,1.0271,1.0273,0,0,0,0,0,0,0,0,0.9935,0.9944,1.0036,1.004,1.0045,1.0115,1.0092,1.0169,1.015,1.0111,1.015,1.0149,1.0207,1.0215,1.0233,1.0294,1.0298,1.0272,1.0274,1.0276,1.0277,0,0,0,0,0,0,0,0.9929,0.994,1.0046,1.0038,1.0043,1.0055,1.0065,1.0107,1.0159,1.0114,1.0118,1.0128,1.0209,1.0229,1.0236,1.03,1.0272,1.0276,1.0278,1.028,1.0391,1.0391,0,0,0,0,0,0,0.9918,0.9936,1.0043,1.0049,0.9988,1.0057,1.0069,1.0093,1.0159,1.0168,1.0128,1.013,1.0222,1.0231,1.024,1.028,1.0276,1.028,1.0283,1.039,1.0391,1.0391,0,0,0,0,0,0,0.9914,0.9927,1.0039,0.9993,1.0009,1.006,1.0086,1.0095,1.0115,1.0169,1.0179,1.0139,1.0222,1.0234,1.0276,1.0285,1.0282,1.0286,1.039,1.039,1.0391,1.0361,0,0,0,0,0,0,0.991,0.9925,0.9937,0.9993,1.0011,1.0073,1.0087,1.0097,1.0122,1.0125,1.0182,1.0191,1.0223,1.027,1.0281,1.029,1.0289,1.0389,1.039,1.0391,1.0362,1.0361,1.036,0,0,0,0,0,0.9905,0.9925,0.9937,0.995,1.0026,1.0074,1.0084,1.0119,1.0122,1.0135,1.017,1.0189,1.0282,1.0274,1.0286,1.0298,1.0389,1.039,1.0391,1.0362,1.0361,1.036,0,0,0,0,0,0,0.987,0.9933,0.9947,0.9987,1.0024,1.0081,1.0097,1.0116,1.0155,1.0156,1.0199,1.0211,1.025,1.0278,1.0268,1.0331,1.0337,1.0341,1.0311,1.0311,1.031,1.0302,1.0293,0,0,0,0,0,0.9866,0.9898,0.9953,0.9982,1.0,1.0045,1.0067,1.0091,1.0132,1.0149,1.0187,1.0227,1.0265,1.0289,1.0327,1.0366,1.0379,1.038,1.0379,1.0378,1.0381,1.0404,1.0405,1.0394,1.0394,1.0394,0,0,0.986,0.9899,0.9917,0.9976,1.0008,1.0042,1.0059,1.0093,1.0119,1.0154,1.0197,1.0226,1.0274,1.0314,1.0334,1.0339,1.0386,1.0379,1.0378,1.0381,1.0405,1.0405,1.0406,1.0395,1.0394,1.0394,0,0,0.9866,0.9898,0.9926,0.9958,1.0005,1.0035,1.0042,1.0096,1.0116,1.0159,1.0187,1.0218,1.0283,1.0315,1.034,1.0358,1.0378,1.0369,1.0365,1.0387,1.0388,1.0389,1.0395,1.0397,1.0372,1.0372,1.0372,0,0.9852,0.9903,0.9939,0.9972,0.9997,1.003,1.0059,1.0089,1.0147,1.0164,1.0168,1.025,1.0284,1.0333,1.0337,1.0356,1.0366,1.0363,1.0384,1.0386,1.0387,1.0394,1.0397,1.037,1.0371,1.0371,1.0371,0,0.9884,0.9919,0.9936,0.999,1.0018,1.0049,1.009,1.0114,1.0135,1.0165,1.0208,1.025,1.0298,1.0311,1.0333,1.0363,1.0365,1.0376,1.0383,1.0386,1.0394,1.0397,1.0369,1.0369,1.0369,1.037,0,0,0.9871,0.9944,0.995,0.9975,1.003,1.0058,1.0091,1.0136,1.0156,1.0195,1.0224,1.0278,1.0288,1.0317,1.0342,1.0361,1.0373,1.0371,1.0372,1.037,1.041,1.0402,1.0404,1.0386,1.0387,1.0387,1.0406,0,0.9884,0.9944,0.9977,1.0023,1.0056,1.0087,1.0116,1.0153,1.0182,1.0214,1.0246,1.0284,1.0295,1.0312,1.0332,1.0367,1.0382,1.0366,1.0415,1.0416,1.0402,1.0408,1.0399,1.0415,1.0409,1.041,1.041,0,0.9908,0.9946,0.9994,1.0046,1.0061,1.0086,1.013,1.0161,1.0204,1.0224,1.0255,1.028,1.0317,1.032,1.0372,1.0361,1.0382,1.0402,1.0404,1.041,1.0414,1.0415,1.0421,1.0423,1.0415,1.0415,1.0414,0,0.9894,0.9957,0.9994,1.0015,1.0076,1.0093,1.0119,1.0162,1.0187,1.0226,1.0243,1.0286,1.0309,1.0342,1.0379,1.0378,1.0427,1.0433,1.0445,1.0444,1.0454,1.0453,1.0464,1.0467,1.0467,1.0467,1.0467,0,0.9906,0.9935,0.9989,1.0012,1.0045,1.0083,1.0116,1.0145,1.0183,1.0212,1.0243,1.027,1.0316,1.035,1.0378,1.0417,1.0427,1.0445,1.0452,1.0442,1.044,1.0457,1.0458,1.0467,1.0467,1.0467,1.0467,0,0.9896,0.9933,0.9976,1.003,1.0044,1.0067,1.0113,1.0137,1.0167,1.0205,1.0216,1.0263,1.0304,1.0343,1.0398,1.0417,1.0456,1.0465,1.0441,1.0445,1.0454,1.0453,1.0477,1.0483,1.0481,1.0481,1.0481,0,0.9902,0.9924,0.9981,1.0002,1.0028,1.0062,1.0088,1.0127,1.0152,1.0203,1.0221,1.0264,1.03,1.0364,1.0404,1.0446,1.0458,1.0463,1.0464,1.0454,1.0458,1.0457,1.0459,1.0462,1.0462,1.0462,1.0462,0,0.9907,0.9925,0.996,1.0002,1.0031,1.0066,1.0102,1.0119,1.0164,1.0192,1.0233,1.0262,1.0317,1.036,1.0407,1.0435,1.0456,1.0461,1.0466,1.0457,1.0442,1.045,1.0439,1.046,1.0461,1.0461,1.0461,1.0461,0.9906,0.9928,0.9971,1.0009,1.004,1.0073,1.0098,1.0131,1.0166,1.0214,1.0235,1.0277,1.032,1.0385,1.0413,1.0447,1.0452,1.0459,1.0461,1.0462,1.046,1.0435,1.0456,1.0456,1.0456,1.0456,1.0456,0,0.9914,0.9943,0.9978,1.0027,1.0057,1.0074,1.0115,1.0139,1.0176,1.0214,1.0249,1.0297,1.0338,1.0381,1.0425,1.0444,1.0455,1.0454,1.0453,1.046,1.0453,1.0445,1.0444,1.0444,1.0444,1.0444,1.0444,1.0444,0.9921,0.9959,0.9982,1.0035,1.0065,1.0106,1.0128,1.0159,1.0189,1.0241,1.0275,1.0302,1.0343,1.039,1.0428,1.044,1.0455,1.0451,1.0466,1.0459,1.046,1.0461,1.0453,1.0454,1.0454,1.0469,1.047,1.047]},{"header":{"parameterUnit":"m.s-1","parameterCategory":1,"la1":30.2991,"la2":30.254,"lo1":-89.0895,"lo2":-89.0444,"dy":0.0017,"dx":0.0017,"nx":28,"ny":28,"refTime":"2023-08-16T21:00:00:Z","depth":0,"parameterNumber":3,"parameterNumberName":"V-component_of_WINDS"},"data":[0,0,0,0,0,0,0,0,0,0,0,0,0,0,0,0,0,0,0,0,0,0,0,0,0,0,0,0,0,0,0,0,0,0,0,0,0,0,0,0,0,0,0,0,0,0,0,0,0,0,0,0,0,0,0,0,0,0,4.7392,4.7392,0,4.7365,4.7364,4.7364,4.7332,4.7331,4.7331,4.733,4.73,4.73,4.7299,0,0,0,0,0,0,0,0,0,0,0,0,0,4.7412,4.7412,4.7392,4.7392,4.7391,4.7365,4.7364,4.7364,4.7332,4.7331,4.7331,4.733,4.73,4.73,4.7299,0,0,0,0,0,0,0,0,0,0,0,0,0,4.7396,4.7412,4.7392,4.7372,4.737,4.7365,4.7364,4.7364,4.7332,4.7331,4.733,4.733,4.73,4.73,4.7299,4.7311,0,0,4.7298,4.7297,0,0,0,0,0,0,0,0,4.7397,4.7395,4.7375,4.7373,4.7371,4.7351,4.736,4.7346,4.7332,4.7346,4.733,4.7329,4.7317,4.7315,4.7312,4.7309,4.7308,4.7298,4.7297,4.7297,4.7297,0,0,0,0,0,0,0,4.7398,4.7396,4.7381,4.7375,4.7372,4.7363,4.736,4.7357,4.7336,4.7345,4.7343,4.734,4.7316,4.7312,4.7311,4.7308,4.7298,4.7297,4.7297,4.7297,4.7309,4.731,0,0,0,0,0,0,4.7403,4.7397,4.7382,4.738,4.7383,4.7363,4.736,4.7358,4.7336,4.7332,4.7341,4.7338,4.7314,4.7311,4.731,4.7319,4.7297,4.7297,4.7296,4.7309,4.7309,4.731,0,0,0,0,0,0,4.7403,4.7402,4.7383,4.7388,4.7385,4.7364,4.7362,4.7358,4.7354,4.7333,4.7329,4.7341,4.7313,4.731,4.731,4.7318,4.7296,4.7296,4.7308,4.7309,4.731,4.734,0,0,0,0,0,0,4.7404,4.7402,4.7407,4.7389,4.7385,4.7385,4.7363,4.7358,4.7354,4.7351,4.7332,4.7328,4.7312,4.7311,4.7309,4.7317,4.7295,4.7307,4.7308,4.7309,4.7338,4.7342,4.7345,0,0,0,0,0,4.7405,4.7417,4.7408,4.7406,4.7391,4.7386,4.7384,4.7366,4.7355,4.7359,4.7344,4.7329,4.7317,4.7311,4.7309,4.7316,4.7306,4.7308,4.7309,4.7336,4.7341,4.7345,0,0,0,0,0,0,4.7437,4.7414,4.7404,4.7411,4.74,4.738,4.7385,4.7371,4.7364,4.7361,4.7338,4.7334,4.7336,4.7326,4.732,4.7324,4.7309,4.731,4.7331,4.7335,4.7338,4.734,4.7295,0,0,0,0,0,4.7445,4.7444,4.7423,4.7431,4.7427,4.7407,4.7404,4.7391,4.7379,4.7374,4.736,4.7348,4.7342,4.7338,4.7331,4.7337,4.7331,4.734,4.7344,4.7347,4.7347,4.7347,4.735,4.7315,4.7315,4.7315,0,0,4.7461,4.7449,4.7449,4.7437,4.7428,4.7425,4.7403,4.7402,4.7399,4.7374,4.7372,4.7361,4.7346,4.7348,4.7348,4.734,4.7356,4.7348,4.7351,4.735,4.7348,4.7352,4.7355,4.7316,4.7316,4.7315,0,0,4.7489,4.7481,4.7485,4.7475,4.7461,4.7448,4.7449,4.7431,4.7422,4.742,4.74,4.7396,4.7386,4.7375,4.7369,4.739,4.7374,4.7388,4.7406,4.7405,4.7408,4.741,4.7416,4.7418,4.7389,4.739,4.739,0,4.7511,4.7507,4.7489,4.7488,4.7482,4.7459,4.7462,4.7453,4.7438,4.7433,4.7425,4.741,4.7398,4.7396,4.7401,4.7397,4.7396,4.739,4.7409,4.7411,4.7413,4.7418,4.742,4.7391,4.7391,4.7391,4.7391,0,4.7533,4.7531,4.7535,4.752,4.7515,4.7517,4.7497,4.7493,4.748,4.7467,4.7464,4.7449,4.7437,4.7436,4.7423,4.7431,4.7426,4.7414,4.7398,4.7419,4.7422,4.7424,4.7393,4.7393,4.7392,4.7392,0,0,4.758,4.7554,4.7556,4.7548,4.753,4.7527,4.7526,4.7515,4.7511,4.7501,4.7498,4.7489,4.7476,4.7469,4.7455,4.7454,4.7469,4.7442,4.7441,4.7445,4.7473,4.7482,4.7484,4.7459,4.7459,4.746,4.7474,0,4.7603,4.7601,4.7583,4.7585,4.7581,4.7558,4.7557,4.7545,4.7532,4.7526,4.7511,4.7504,4.749,4.7485,4.7484,4.7468,4.7474,4.7466,4.7454,4.7454,4.7457,4.7487,4.7496,4.751,4.7476,4.7476,4.7476,0,4.7629,4.762,4.7622,4.7602,4.7599,4.7599,4.7586,4.7581,4.7565,4.7556,4.7547,4.753,4.7526,4.7512,4.7504,4.7499,4.7492,4.7483,4.7483,4.748,4.7465,4.7482,4.7515,4.7516,4.7479,4.7478,4.7478,0,4.7661,4.7649,4.7648,4.7642,4.7619,4.7618,4.7609,4.7593,4.7587,4.7575,4.757,4.7558,4.7551,4.7541,4.7521,4.7513,4.7514,4.7499,4.7504,4.7505,4.7505,4.7505,4.7534,4.7503,4.7503,4.7503,4.7503,0,4.7687,4.7688,4.7661,4.766,4.766,4.7639,4.7639,4.7627,4.7613,4.7608,4.7588,4.7583,4.7558,4.7549,4.7534,4.7528,4.7525,4.7516,4.7511,4.7517,4.7518,4.7511,4.7509,4.7504,4.7504,4.7504,4.7504,0,4.7721,4.7703,4.77,4.7679,4.7673,4.7674,4.7655,4.7652,4.7638,4.7631,4.7628,4.7605,4.7594,4.7574,4.7557,4.7546,4.7543,4.7537,4.7549,4.7545,4.7551,4.755,4.7577,4.7578,4.7548,4.7548,4.7548,0,4.7738,4.7738,4.7717,4.7712,4.7703,4.7697,4.769,4.7669,4.7662,4.7644,4.7643,4.763,4.7619,4.7602,4.7583,4.757,4.7561,4.7571,4.7559,4.7564,4.7559,4.7558,4.7557,4.7574,4.7574,4.7575,4.7575,0,4.7769,4.776,4.7752,4.774,4.7732,4.7722,4.771,4.7707,4.7683,4.7676,4.7665,4.7657,4.7639,4.7626,4.761,4.7598,4.7581,4.7579,4.7579,4.7584,4.759,4.7585,4.7554,4.7578,4.7578,4.7578,4.7578,4.7577,4.7794,4.7792,4.7776,4.7767,4.7756,4.7745,4.7741,4.7726,4.7717,4.7701,4.7689,4.7678,4.7661,4.7637,4.7625,4.7615,4.7608,4.7609,4.7609,4.7609,4.761,4.7593,4.7612,4.7612,4.7612,4.7612,4.7612,0,4.7822,4.781,4.7802,4.7786,4.7778,4.7765,4.7751,4.7745,4.7736,4.7721,4.7711,4.7697,4.7684,4.7663,4.7648,4.7644,4.7636,4.764,4.764,4.7637,4.7619,4.7619,4.7647,4.7647,4.7647,4.7647,4.7647,4.7647,4.7835,4.7831,4.782,4.7809,4.7797,4.7788,4.778,4.7769,4.7757,4.7743,4.7732,4.772,4.7702,4.7685,4.7671,4.7666,4.766,4.7667,4.7658,4.7641,4.7638,4.7635,4.7635,4.7666,4.7666,4.7677,4.7677,4.7677]}]]